Погода в Кокадое

Россия / Чеченская Республика     42°44′59″N   45°35′08″E
темп.,
°C
ветер,
м/с
пор.,
м/с
влажн.,
%
обл.,
%
осадки,
мм/ч
давл.,
гПа
погр.,
м
18 апреля, вс
вс1800:00+6ю1288100 0.0 1020107
03:00+6ююз1287100 0.0 101988
06:00+6зсз118598 0.0 101982
09:00+12ю2460100 0.3 1016724
12:00+15юз034758 0.0 10141563
15:00+14св125596 0.1 10141105
18:00+9ссв2180100 0.4 1017278
21:00+8юв1290100 1.3 1019192
19 апреля, пн
пн1900:00+8ююз3379100 0.1 101847
03:00+8ююз2269100 0.1 101723
06:00+8юз226621 0.0 101730
09:00+15ссв114580 0.0 10151319
12:00+14в1255100 0.2 10151187
15:00+16вюв134937 0.4 10131494
18:00+12ююз136898 0.1 1014289
21:00+9ююз1277100 0.1 101639
20 апреля, вт
вт2000:00+9ююз346643 0.0 101588
03:00+9ююз346957 0.0 101486
06:00+10ююз456070 0.0 101294
09:00+18ююз453893 0.0 1009772
12:00+20ююз5733100 0.0 10071555
15:00+20ююз4735100 0.0 10071632
18:00+12ю4874100 2.1 1010386
21:00+10юз5678100 3.9 1011172
21 апреля, ср
ср2100:00+10ююз4672100 5.7 1012152
03:00+8зсз018540 5.7 101349
06:00+7ссв229592 0.3 1016249
09:00+7ссв339593 0.6 1018300
12:00+6ссв329393 0.2 1019361
15:00+4ссв329392 0.6 1020315
18:00+3св2197100 0.8 1022295
21:00+3ссв219899 1.4 1023178
22 апреля, чт
чт2200:00+3ссв219891 0.6 1022131
03:00+3св119790 1.0 102286
06:00+3ссв119780 0.3 102391
09:00+7св218464 0.3 1021414
12:00+10ссв427159 0.1 1019713
15:00+6ссв329092 0.3 1021391
18:00+4св2297100 0.2 1023281
21:00+4св1198100 0.4 1023209